WetterOnline ( https://www.wetteronline.de )

Wetter aktuell Lechfeld

Aktuelles Wetter: Lechfeld (554m)

6-stündlich | Neueste Meldungen
Ortszeit Temperatur Wetter
Do, 29.02. 13:00 6.7° C bewölkt
Do, 29.02. 7:00 3.8° C bewölkt
Do, 29.02. 1:00 2.3° C bewölkt
Mi, 28.02. 19:00 3.4° C wolkig
Mi, 28.02. 13:00 5.1° C bewölkt
Mi, 28.02. 7:00 4.5° C bedeckt
Mi, 28.02. 1:00 5.5° C bewölkt
Di, 27.02. 19:00 5.3° C wolkig
Ortszeit Temperatur Wetter
Do, 29.02. 15:00 7.9° C wolkig
Do, 29.02. 14:00 7.2° C bewölkt
Do, 29.02. 13:00 6.7° C bewölkt
Do, 29.02. 12:00 6.6° C bewölkt
Do, 29.02. 11:00 5.9° C bewölkt
Do, 29.02. 10:00 5.0° C bewölkt
Do, 29.02. 9:00 4.3° C bewölkt
Ortszeit Relative Feuchte Sichtweite
Do, 29.02. 13:00 73% 15 km
Do, 29.02. 7:00 88% 6 km
Do, 29.02. 1:00 96% 6 km
Mi, 28.02. 19:00 88% 6 km
Mi, 28.02. 13:00 85% 6 km
Mi, 28.02. 7:00 91% 5.0 km
Mi, 28.02. 1:00 88% 15 km
Di, 27.02. 19:00 79% 20 km
Ortszeit Relative Feuchte Sichtweite
Do, 29.02. 15:00 70% 15 km
Do, 29.02. 14:00 74% 15 km
Do, 29.02. 13:00 73% 15 km
Do, 29.02. 12:00 73% 15 km
Do, 29.02. 11:00 80% 7 km
Do, 29.02. 10:00 84% 6 km
Do, 29.02. 9:00 87% 6 km
Ortszeit Niederschlagsmenge Niederschlagsart
Do, 29.02. 13:00 keine Meldung -
Do, 29.02. 7:00 0.0 l/m2 in 12 Std. -
Do, 29.02. 1:00 keine Meldung -
Mi, 28.02. 19:00 0.0 l/m2 in 12 Std. -
Mi, 28.02. 13:00 keine Meldung -
Mi, 28.02. 7:00 0.0 l/m2 in 12 Std. -
Mi, 28.02. 1:00 keine Meldung -
Di, 27.02. 19:00 0.1 l/m2 in 12 Std. -
Ortszeit Niederschlagsmenge Niederschlagsart
Do, 29.02. 15:00 keine Meldung -
Do, 29.02. 14:00 keine Meldung -
Do, 29.02. 13:00 keine Meldung -
Do, 29.02. 12:00 keine Meldung -
Do, 29.02. 11:00 keine Meldung -
Do, 29.02. 10:00 keine Meldung -
Do, 29.02. 9:00 keine Meldung -
Ortszeit Stärke Spitze Richtung
km/h Bft. km/h Grad Sektor
Do, 29.02. 13:00 7 2 - 40° NO
Do, 29.02. 7:00 4 1 - - -
Do, 29.02. 1:00 4 1 - 10° N
Mi, 28.02. 19:00 0 0 - - -
Mi, 28.02. 13:00 7 2 - 340° N
Mi, 28.02. 7:00 7 2 - 320° NW
Mi, 28.02. 1:00 4 1 - 300° NW
Di, 27.02. 19:00 4 1 - 170° S
Ortszeit Stärke Spitze Richtung
km/h Bft. km/h Grad Sektor
Do, 29.02. 15:00 14 3 - 40° NO
Do, 29.02. 14:00 14 3 - 40° NO
Do, 29.02. 13:00 7 2 - 40° NO
Do, 29.02. 12:00 7 2 - 110° O
Do, 29.02. 11:00 7 2 - 80° O
Do, 29.02. 10:00 7 2 - 90° O
Do, 29.02. 9:00 7 2 - 100° O
Ortszeit Untergrenze Bedeckung Gattung
total tief tief mittel hoch
Do, 29.02. 13:00 450 m 7/8 7/8 Sc - -
Do, 29.02. 7:00 600 m 7/8 7/8 Sc - -
Do, 29.02. 1:00 360 m 7/8 7/8 Sc - -
Mi, 28.02. 19:00 450 m 6/8 6/8 Sc - -
Mi, 28.02. 13:00 180 m 7/8 7/8 St - -
Mi, 28.02. 7:00 240 m 8/8 8/8 Sc - -
Mi, 28.02. 1:00 750 m 7/8 7/8 Sc - -
Di, 27.02. 19:00 750 m 7/8 3/8 Sc As Ci
Ortszeit Bedeckungsgrad in Achtel und Wolkenuntergrenze
Do, 29.02. 15:00 6(450m)
Do, 29.02. 14:00 7(450m)
Do, 29.02. 13:00 7(450m)
Do, 29.02. 12:00 7(450m)
Do, 29.02. 11:00 7(600m)
Do, 29.02. 10:00 7(600m)
Do, 29.02. 9:00 7(600m)
Ortszeit Luftdruck NN (hPa) Tendenz (hPa in 3 Std.)
Do, 29.02. 13:00 1015 - 2,1
Do, 29.02. 7:00 1019 - 1,3
Do, 29.02. 1:00 1022 - 0,9
Mi, 28.02. 19:00 1023 + 0,5
Mi, 28.02. 13:00 1022 + 1,0
Mi, 28.02. 7:00 1020 + 1,8
Mi, 28.02. 1:00 1016 + 1,2
Di, 27.02. 19:00 1014 + 1,9
Ortszeit Luftdruck NN (hPa) Tendenz (hPa in 3 Std.)
Do, 29.02. 15:00 1013 - 2,7
Do, 29.02. 14:00 1014 - 2,3
Do, 29.02. 13:00 1015 - 2,1
Do, 29.02. 12:00 1016 - 1,9
Do, 29.02. 11:00 1017 - 1,7
Do, 29.02. 10:00 1018 - 0,9
Do, 29.02. 9:00 1019 - 0,5
Ortszeit Schneehöhe (cm)
Do, 29.02. 13:00 -
Do, 29.02. 7:00 0
Do, 29.02. 1:00 -
Mi, 28.02. 19:00 0
Mi, 28.02. 13:00 -
Mi, 28.02. 7:00 0
Mi, 28.02. 1:00 -
Di, 27.02. 19:00 0
Ortszeit Schneehöhe (cm)
Do, 29.02. 15:00 -
Do, 29.02. 14:00 -
Do, 29.02. 13:00 -
Do, 29.02. 12:00 -
Do, 29.02. 11:00 -
Do, 29.02. 10:00 -
Do, 29.02. 9:00 -
Link zu dieser Seite / Seite empfehlen

Das Wetter in ...